F9741 Weather Reports


time (UTC)temp
C
wind
direction
speed
KPH
gust
KPH
rain 1hr
cm
rain 24hr
cm
rain mn
cm
humidity
%
barometer
mb
20260507114220 6 238 6.4 14.5 0.00 0.00 0.00 81 1014.3
20260507113715 6 228 6.4 14.5 0.00 0.00 0.00 81 1014.3
20260507113207 6 243 6.4 12.9 0.00 0.00 0.00 81 1014.2
20260507112701 6 240 4.8 9.7 0.00 0.00 0.00 81 1014.2
20260507112156 6 236 3.2 11.3 0.00 0.00 0.00 80 1014.2
20260507111651 6 240 4.8 11.3 0.00 0.00 0.00 80 1014.1
20260507111145 6 242 4.8 12.9 0.00 0.00 0.00 80 1014.3
20260507110636 6 240 4.8 12.9 0.00 0.00 0.00 80 1014.3
20260507110132 6 228 4.8 12.9 0.00 0.00 0.00 80 1014.2
20260507105625 6 265 6.4 12.9 0.00 0.00 0.00 80 1014.2
20260507105120 7 242 4.8 16.1 0.00 0.00 0.00 80 1014.2
20260507104616 7 242 4.8 16.1 0.00 0.00 0.00 79 1014.2
20260507104108 7 233 6.4 16.1 0.00 0.00 0.00 79 1014.1
20260507103602 7 236 6.4 16.1 0.00 0.00 0.00 79 1014.1
20260507103057 7 243 6.4 16.1 0.00 0.00 0.00 79 1014.0
20260507102551 7 242 6.4 17.7 0.00 0.00 0.00 79 1014.1
20260507102043 7 263 6.4 17.7 0.00 0.00 0.00 78 1014.1
20260507101538 7 240 6.4 17.7 0.00 0.00 0.00 78 1014.1
20260507101032 7 223 6.4 17.7 0.00 0.00 0.00 78 1014.1
20260507100525 7 228 6.4 16.1 0.00 0.00 0.00 78 1014.2
20260507100020 7 244 8.0 16.1 0.00 0.00 0.00 78 1014.3
20260507095514 7 237 8.0 16.1 0.00 0.00 0.00 78 1014.2
20260507095008 7 240 6.4 16.1 0.00 0.00 0.00 78 1014.2
20260507094502 7 246 4.8 12.9 0.00 0.00 0.00 77 1014.3
20260507093956 7 243 4.8 14.5 0.00 0.00 0.00 77 1014.4
20260507093450 7 240 6.4 14.5 0.00 0.00 0.00 77 1014.3
20260507092944 7 238 6.4 14.5 0.00 0.00 0.00 76 1014.3
20260507092438 7 239 6.4 14.5 0.00 0.00 0.00 76 1014.4
20260507091932 7 236 4.8 12.9 0.00 0.00 0.00 76 1014.5
20260507091425 7 240 4.8 14.5 0.00 0.00 0.00 75 1014.6
20260507091145 7 229 6.4 14.5 0.00 0.00 0.00 75 1014.6
20260507090643 7 234 6.4 12.9 0.00 0.00 0.00 75 1014.7
20260507085918 7 279 4.8 12.9 0.00 0.00 0.00 74 1014.7
20260507085416 7 236 4.8 11.3 0.00 0.00 0.00 74 1014.7
20260507084918 7 236 4.8 11.3 0.00 0.00 0.00 74 1014.9
20260507084640 7 236 4.8 11.3 0.00 0.00 0.00 73 1014.9
20260507083916 7 241 4.8 11.3 0.00 0.00 0.00 73 1015.0
20260507083416 7 240 4.8 11.3 0.00 0.00 0.00 72 1015.1
20260507082917 7 247 4.8 9.7 0.00 0.00 0.00 72 1015.1
20260507082416 7 245 3.2 9.7 0.00 0.00 0.00 72 1015.1
20260507081919 7 221 3.2 11.3 0.00 0.00 0.00 71 1015.1
20260507081641 7 240 4.8 11.3 0.00 0.00 0.00 71 1015.2
20260507080915 7 242 4.8 11.3 0.00 0.00 0.00 70 1015.3
20260507080415 7 239 4.8 11.3 0.00 0.00 0.00 70 1015.4
20260507075915 7 240 3.2 8.0 0.00 0.00 0.00 70 1015.4
20260507075415 7 231 3.2 8.0 0.00 0.00 0.00 69 1015.6
20260507074917 7 237 3.2 8.0 0.00 0.00 0.00 69 1015.7
20260507074411 7 231 1.6 6.4 0.00 0.00 0.00 68 1015.6
20260507073903 7 236 1.6 6.4 0.00 0.00 0.00 67 1015.7
20260507073405 7 239 1.6 8.0 0.00 0.00 0.00 66 1015.8
20260507072902 7 239 3.2 8.0 0.00 0.00 0.00 66 1015.9
20260507072404 7 239 3.2 8.0 0.00 0.00 0.00 65 1015.8
20260507071901 7 238 3.2 8.0 0.00 0.00 0.00 65 1016.0
20260507071401 7 238 3.2 8.0 0.00 0.00 0.00 65 1016.0
20260507070900 7 238 3.2 8.0 0.00 0.00 0.00 65 1016.1
20260507070359 7 241 3.2 8.0 0.00 0.00 0.00 65 1016.1
20260507065859 7 242 1.6 8.0 0.00 0.00 0.00 66 1016.2
20260507065359 6 255 0.0 4.8 0.00 0.00 0.00 67 1016.3
20260507064856 6 257 1.6 4.8 0.00 0.00 0.00 67 1016.3
20260507064356 6 257 1.6 3.2 0.00 0.00 0.00 67 1016.5
20260507063856 6 258 1.6 3.2 0.00 0.00 0.00 67 1016.5
20260507063403 6 258 0.0 1.6 0.00 0.00 0.00 65 1016.5
20260507063356 6 258 0.0 3.2 0.00 0.00 0.00 66 1016.4
20260507062354 6 258 0.0 0.0 0.00 0.00 0.00 64 1016.5
20260507062108 6 258 0.0 0.0 0.00 0.00 0.00 64 1016.6
20260507061619 6 258 0.0 3.2 0.00 0.00 0.00 64 1016.5
20260507061112 6 258 0.0 3.2 0.00 0.00 0.00 65 1016.6
20260507060347 6 258 0.0 3.2 0.00 0.00 0.00 65 1016.7
20260507055847 6 258 1.6 3.2 0.00 0.00 0.00 66 1016.7
20260507055347 6 258 0.0 3.2 0.00 0.00 0.00 66 1016.7
20260507054847 6 258 1.6 3.2 0.00 0.00 0.00 66 1016.7
20260507054346 6 258 1.6 3.2 0.00 0.00 0.00 67 1016.8
20260507053845 6 258 0.0 1.6 0.00 0.00 0.00 67 1016.8
20260507053346 6 258 0.0 1.6 0.00 0.00 0.00 67 1016.8
20260507052846 6 258 0.0 3.2 0.00 0.00 0.00 67 1016.9
20260507052618 6 258 0.0 3.2 0.00 0.00 0.00 66 1016.9
20260507051846 6 258 1.6 3.2 0.00 0.00 0.00 67 1016.8
20260507051344 6 258 1.6 4.8 0.00 0.00 0.00 67 1016.7
20260507050845 6 258 1.6 4.8 0.00 0.00 0.00 67 1016.8
20260507050345 7 258 0.0 4.8 0.00 0.00 0.00 66 1016.8
20260507050110 7 257 0.0 4.8 0.00 0.00 0.00 65 1016.9
20260507045341 7 257 0.0 0.0 0.00 0.00 0.00 63 1016.8
20260507045334 7 257 0.0 0.0 0.00 0.00 0.00 63 1016.8
20260507044557 7 257 0.0 0.0 0.00 0.00 0.00 63 1016.8
20260507044112 6 257 0.0 0.0 0.00 0.00 0.00 64 1017.1
20260507043335 6 257 0.0 0.0 0.00 0.00 0.00 62 1017.0
20260507042832 7 257 0.0 0.0 0.00 0.00 0.00 62 1017.1
20260507042333 7 257 0.0 0.0 0.00 0.00 0.00 62 1017.0
20260507041834 6 257 0.0 1.6 0.00 0.00 0.00 61 1017.1
20260507041556 6 257 0.0 1.6 0.00 0.00 0.00 61 1017.1
20260507040828 6 257 0.0 1.6 0.00 0.00 0.00 61 1017.1
20260507040329 6 257 0.0 1.6 0.00 0.00 0.00 61 1017.3
20260507040049 7 257 0.0 1.6 0.00 0.00 0.00 60 1017.2
20260507035555 7 257 0.0 1.6 0.00 0.00 0.00 59 1017.3
20260507034827 7 257 0.0 1.6 0.00 0.00 0.00 58 1017.4
20260507034327 7 257 0.0 0.0 0.00 0.00 0.00 57 1017.4
20260507033827 7 257 0.0 0.0 0.00 0.00 0.00 57 1017.5
20260507033326 7 257 0.0 1.6 0.00 0.00 0.00 56 1017.5
20260507032825 8 257 0.0 1.6 0.00 0.00 0.00 54 1017.6
20260507032325 8 257 0.0 1.6 0.00 0.00 0.00 52 1017.6
20260507032049 8 257 0.0 1.6 0.00 0.00 0.00 51 1017.4
20260507031548 8 257 0.0 3.2 0.00 0.00 0.00 49 1017.5
20260507030820 9 257 0.0 3.2 0.00 0.00 0.00 50 1017.5
20260507030319 9 257 1.6 3.2 0.00 0.00 0.00 49 1017.5
20260507025815 9 257 1.6 3.2 0.00 0.00 0.00 48 1017.5
20260507025314 9 257 0.0 3.2 0.00 0.00 0.00 47 1017.5
20260507024815 9 257 0.0 3.2 0.00 0.00 0.00 46 1017.6
20260507024315 10 257 1.6 3.2 0.00 0.00 0.00 46 1017.5
20260507023814 10 257 1.6 3.2 0.00 0.00 0.00 45 1017.6
20260507023315 10 256 1.6 3.2 0.00 0.00 0.00 46 1017.6
20260507022816 10 256 1.6 3.2 0.00 0.00 0.00 46 1017.4
20260507022313 10 255 0.0 3.2 0.00 0.00 0.00 46 1017.3
20260507022036 10 255 0.0 0.0 0.00 0.00 0.00 45 1017.4
20260507021315 10 255 0.0 1.6 0.00 0.00 0.00 44 1017.4
20260507020817 10 255 0.0 1.6 0.00 0.00 0.00 44 1017.2
20260507020532 10 255 0.0 1.6 0.00 0.00 0.00 44 1017.2
20260507015816 11 255 0.0 3.2 0.00 0.00 0.00 43 1017.1
20260507015315 11 255 0.0 3.2 0.00 0.00 0.00 42 1017.2
20260507015044 11 255 0.0 3.2 0.00 0.00 0.00 42 1017.2
20260507014312 11 255 1.6 3.2 0.00 0.00 0.00 40 1017.1
20260507013811 12 255 1.6 3.2 0.00 0.00 0.00 40 1017.0
20260507013313 12 255 1.6 3.2 0.00 0.00 0.00 40 1017.0
20260507012812 12 255 0.0 1.6 0.00 0.00 0.00 38 1017.1
20260507012312 12 255 0.0 1.6 0.00 0.00 0.00 37 1017.1
20260507012041 12 255 0.0 1.6 0.00 0.00 0.00 36 1017.2
20260507011315 13 255 0.0 1.6 0.00 0.00 0.00 35 1017.1
20260507010809 13 255 0.0 1.6 0.00 0.00 0.00 35 1017.1
20260507010312 13 255 0.0 1.6 0.00 0.00 0.00 35 1017.2
20260507005812 13 255 0.0 1.6 0.00 0.00 0.00 33 1017.1
20260507005312 13 255 0.0 1.6 0.00 0.00 0.00 33 1017.1
20260507004807 13 255 0.0 4.8 0.00 0.00 0.00 33 1017.1
20260507004307 14 255 0.0 4.8 0.00 0.00 0.00 32 1017.1
20260507003812 14 254 1.6 11.3 0.00 0.00 0.00 31 1017.2
20260507003304 14 255 1.6 11.3 0.00 0.00 0.00 32 1017.3
20260507002803 14 283 3.2 8.0 0.00 0.00 0.00 32 1017.3
20260507002305 14 71 1.6 9.7 0.00 0.00 0.00 31 1017.4
20260507001801 14 279 1.6 9.7 0.00 0.00 0.00 32 1017.4
20260507001302 15 264 1.6 9.7 0.00 0.00 0.00 32 1017.4
20260507000804 15 119 3.2 9.7 0.00 0.00 0.00 31 1017.4
20260507000259 15 277 3.2 9.7 0.00 0.00 0.00 30 1017.5
20260507000039 15 265 1.6 8.0 0.00 0.00 0.00 32 1017.5
20260506235259 15 265 3.2 8.0 0.00 0.00 0.00 32 1017.6
20260506234800 15 315 3.2 8.0 0.00 0.00 0.00 31 1017.7
20260506234513 15 258 1.6 8.0 0.00 0.00 0.00 32 1017.7
20260506234010 15 294 3.2 8.0 0.00 0.00 0.00 32 1017.6
20260506233241 15 226 3.2 8.0 0.00 0.00 0.00 30 1017.7
20260506232957 15 256 3.2 14.5 0.00 0.00 0.00 32 1017.6
20260506232230 15 288 3.2 14.5 0.00 0.00 0.00 32 1017.7
20260506231725 15 277 3.2 14.5 0.00 0.00 0.00 30 1017.8
20260506231216 16 286 4.8 14.5 0.00 0.00 0.00 31 1017.8
20260506230715 16 225 3.2 16.1 0.00 0.00 0.00 33 1017.8
20260506230214 16 300 3.2 16.1 0.00 0.00 0.00 31 1018.0
20260506225715 16 327 4.8 16.1 0.00 0.00 0.00 31 1018.0
20260506225214 16 22 4.8 16.1 0.00 0.00 0.00 30 1018.0
20260506224713 16 342 3.2 16.1 0.00 0.00 0.00 32 1017.8
20260506224213 15 302 3.2 14.5 0.00 0.00 0.00 32 1018.0
20260506223943 15 117 3.2 14.5 0.00 0.00 0.00 32 1018.0
20260506223209 15 61 4.8 14.5 0.00 0.00 0.00 31 1018.0
20260506222709 15 249 4.8 14.5 0.00 0.00 0.00 30 1018.1
20260506222211 15 115 3.2 32.2 0.00 0.00 0.00 32 1018.1
20260506221708 15 301 3.2 32.2 0.00 0.00 0.00 33 1018.2
20260506221433 15 338 4.8 32.2 0.00 0.00 0.00 32 1018.2
20260506220704 15 122 4.8 32.2 0.00 0.00 0.00 33 1018.3
20260506220203 15 238 3.2 11.3 0.00 0.00 0.00 33 1018.2
20260506215712 16 221 3.2 11.3 0.00 0.00 0.00 33 1018.3
20260506215204 16 256 4.8 17.7 0.00 0.00 0.00 31 1018.5
20260506214702 16 233 4.8 17.7 0.00 0.00 0.00 32 1018.3
20260506214155 16 249 4.8 17.7 0.00 0.00 0.00 35 1018.6
20260506213650 16 203 4.8 17.7 0.00 0.00 0.00 32 1018.6
20260506213143 16 38 3.2 14.5 0.00 0.00 0.00 31 1018.6
20260506212637 16 271 4.8 14.5 0.00 0.00 0.00 33 1018.6
20260506212131 15 41 3.2 14.5 0.00 0.00 0.00 32 1018.8
20260506211904 15 329 3.2 14.5 0.00 0.00 0.00 31 1018.7
20260506211119 15 113 4.8 14.5 0.00 0.00 0.00 33 1018.8
20260506210613 15 349 3.2 14.5 0.00 0.00 0.00 32 1018.8
20260506210106 15 336 3.2 12.9 0.00 0.00 0.00 33 1018.9
20260506205825 15 338 3.2 16.1 0.00 0.00 0.00 34 1019.0
20260506205056 15 269 3.2 16.1 0.00 0.00 0.00 33 1019.1
20260506204548 15 279 3.2 16.1 0.00 0.00 0.00 34 1019.1
20260506204044 15 310 4.8 16.1 0.00 0.00 0.00 33 1019.3
20260506203537 15 292 4.8 19.3 0.00 0.00 0.00 33 1019.2
20260506203033 16 271 6.4 19.3 0.00 0.00 0.00 34 1019.3
20260506202525 16 242 6.4 24.1 0.00 0.00 0.00 35 1019.3
20260506202020 16 278 6.4 24.1 0.00 0.00 0.00 36 1019.3
20260506201513 16 254 6.4 24.1 0.00 0.00 0.00 34 1019.4
20260506201008 16 257 4.8 24.1 0.00 0.00 0.00 37 1019.4
20260506200501 15 271 3.2 14.5 0.00 0.00 0.00 34 1019.5
20260506195956 15 73 3.2 14.5 0.00 0.00 0.00 35 1019.4
20260506195718 16 235 3.2 12.9 0.00 0.00 0.00 35 1019.4
20260506195215 16 338 4.8 12.9 0.00 0.00 0.00 37 1019.5
20260506194437 15 247 4.8 12.9 0.00 0.00 0.00 38 1019.6
20260506193932 15 225 6.4 17.7 0.00 0.00 0.00 35 1019.5
20260506193425 15 307 6.4 17.7 0.00 0.00 0.00 36 1019.7
20260506192921 15 215 6.4 19.3 0.00 0.00 0.00 35 1019.7
20260506192414 15 311 4.8 19.3 0.00 0.00 0.00 35 1019.6
20260506191908 14 243 4.8 19.3 0.00 0.00 0.00 36 1019.7
20260506191403 14 165 4.8 19.3 0.00 0.00 0.00 36 1019.8
20260506190854 14 84 3.2 16.1 0.00 0.00 0.00 40 1019.8
20260506190349 14 250 4.8 17.7 0.00 0.00 0.00 37 1019.8
20260506185844 14 279 4.8 17.7 0.00 0.00 0.00 36 1019.8
20260506185337 14 325 4.8 17.7 0.00 0.00 0.00 39 1019.9
20260506184830 13 33 4.8 17.7 0.00 0.00 0.00 37 1020.1
20260506184325 13 344 4.8 14.5 0.00 0.00 0.00 36 1020.0
20260506183820 13 109 3.2 17.7 0.00 0.00 0.00 40 1020.1
20260506183314 13 307 3.2 17.7 0.00 0.00 0.00 38 1020.1
20260506182808 13 218 4.8 17.7 0.00 0.00 0.00 37 1020.1
20260506182306 14 184 4.8 17.7 0.00 0.00 0.00 38 1020.3
20260506181754 13 248 4.8 14.5 0.00 0.00 0.00 41 1020.3
20260506181249 14 137 4.8 14.5 0.00 0.00 0.00 39 1020.3
20260506181006 13 178 4.8 14.5 0.00 0.00 0.00 37 1020.4
20260506180238 13 90 4.8 14.5 0.00 0.00 0.00 37 1020.4
20260506175731 14 62 6.4 17.7 0.00 0.00 0.00 38 1020.5
20260506175225 14 99 4.8 17.7 0.00 0.00 0.00 37 1020.7
20260506174720 13 237 4.8 14.5 0.00 0.00 0.00 39 1020.6
20260506174212 13 229 4.8 14.5 0.00 0.00 0.00 38 1020.8
20260506173707 14 107 4.8 14.5 0.00 0.00 0.00 39 1020.7
20260506173202 14 259 4.8 20.9 0.00 0.00 0.00 40 1020.9
20260506172655 13 346 4.8 20.9 0.00 0.00 0.00 42 1020.8
20260506172150 13 294 4.8 20.9 0.00 0.00 0.00 41 1020.8
20260506171641 13 269 4.8 20.9 0.00 0.03 0.00 42 1020.9
20260506171138 13 239 4.8 12.9 0.00 0.03 0.00 41 1021.0
20260506170903 13 5 4.8 12.9 0.00 0.03 0.00 43 1021.1
20260506170131 13 111 3.2 12.9 0.00 0.03 0.00 44 1021.0
20260506165631 13 96 3.2 12.9 0.00 0.03 0.00 46 1021.1
20260506165134 12 234 3.2 12.9 0.00 0.03 0.00 45 1021.2
20260506164851 12 272 3.2 11.3 0.00 0.03 0.00 44 1021.3
20260506164131 12 254 3.2 11.3 0.00 0.03 0.00 42 1021.2
20260506163630 12 86 4.8 11.3 0.00 0.03 0.00 42 1021.5
20260506163131 12 251 3.2 11.3 0.00 0.03 0.00 43 1021.3
20260506162629 12 211 3.2 9.7 0.00 0.03 0.00 47 1021.3
20260506162130 12 246 3.2 9.7 0.00 0.03 0.00 42 1021.3
20260506161852 12 199 3.2 9.7 0.00 0.03 0.00 44 1021.3
20260506161128 12 85 3.2 8.0 0.00 0.03 0.00 44 1021.5
20260506160630 12 46 3.2 8.0 0.00 0.03 0.00 44 1021.3
20260506160129 12 250 3.2 8.0 0.00 0.03 0.00 45 1021.3
20260506155634 12 55 3.2 9.7 0.00 0.03 0.00 45 1021.2
20260506155130 12 67 3.2 9.7 0.00 0.03 0.00 45 1021.3
20260506154624 12 143 3.2 9.7 0.00 0.03 0.00 46 1021.3
20260506154124 12 121 3.2 9.7 0.00 0.03 0.00 47 1021.2
20260506153623 11 119 1.6 8.0 0.00 0.03 0.00 48 1021.2
20260506153350 11 171 3.2 16.1 0.00 0.03 0.00 51 1021.3
20260506152623 11 314 3.2 16.1 0.00 0.03 0.00 47 1021.2
20260506152349 11 250 3.2 9.7 0.00 0.03 0.00 46 1021.3
20260506151842 11 253 3.2 8.0 0.00 0.03 0.00 46 1021.3
20260506151122 11 82 3.2 9.7 0.00 0.03 0.00 47 1021.3
20260506150851 11 176 3.2 9.7 0.00 0.03 0.00 49 1021.2
20260506150120 11 221 3.2 9.7 0.00 0.03 0.00 49 1021.2
20260506145620 11 286 3.2 9.7 0.00 0.03 0.00 49 1021.1
20260506145120 10 280 3.2 9.7 0.00 0.03 0.00 48 1021.2
20260506144620 10 87 3.2 6.4 0.00 0.03 0.00 49 1021.3
20260506144340 10 300 3.2 6.4 0.00 0.03 0.00 50 1021.3
20260506143838 10 292 3.2 8.0 0.00 0.03 0.00 52 1021.3
20260506143118 10 244 3.2 8.0 0.00 0.03 0.00 52 1021.2
20260506142621 10 226 3.2 8.0 0.00 0.03 0.00 51 1021.3
20260506142348 10 243 3.2 8.0 0.00 0.03 0.00 52 1021.1
20260506141617 10 272 1.6 6.4 0.00 0.03 0.00 50 1021.1
20260506141342 10 88 1.6 4.8 0.00 0.03 0.00 52 1021.0
20260506140617 10 262 1.6 6.4 0.00 0.03 0.00 52 1020.9
20260506140351 9 302 1.6 6.4 0.00 0.03 0.00 52 1020.9
20260506135614 9 153 1.6 6.4 0.00 0.03 0.00 53 1020.9
20260506135115 9 71 1.6 6.4 0.00 0.03 0.00 54 1020.9
20260506134843 9 82 1.6 6.4 0.00 0.03 0.00 55 1020.9
20260506134114 8 107 1.6 6.4 0.00 0.03 0.00 55 1020.8
20260506133613 8 83 1.6 6.4 0.00 0.03 0.00 56 1020.8
20260506133114 8 86 1.6 4.8 0.00 0.03 0.00 58 1020.7
20260506132613 8 37 1.6 4.8 0.00 0.03 0.00 58 1020.8
20260506132114 8 70 1.6 6.4 0.00 0.03 0.00 59 1020.7
20260506131613 7 80 1.6 6.4 0.00 0.03 0.00 61 1020.6
20260506131114 7 63 1.6 6.4 0.00 0.03 0.00 60 1020.6
20260506130613 6 326 1.6 6.4 0.00 0.03 0.00 63 1020.5
20260506130115 6 288 1.6 4.8 0.00 0.03 0.00 65 1020.5
20260506125614 6 261 1.6 3.2 0.00 0.03 0.00 67 1020.6
20260506125115 5 261 1.6 3.2 0.00 0.03 0.00 68 1020.5
20260506124614 5 185 0.0 3.2 0.00 0.03 0.00 70 1020.5
20260506124114 5 97 0.0 0.0 0.00 0.03 0.00 71 1020.4
20260506123613 5 97 0.0 1.6 0.00 0.03 0.00 72 1020.3
20260506123111 4 97 0.0 1.6 0.00 0.03 0.00 72 1020.2
20260506122612 4 86 0.0 1.6 0.00 0.03 0.00 74 1020.1
20260506122107 3 86 0.0 0.0 0.00 0.03 0.00 75 1020.0
20260506121901 2 86 0.0 0.0 0.00 0.03 0.00 77 1019.8
20260506121607 3 86 0.0 0.0 0.00 0.03 0.00 76 1020.0
20260506121106 2 86 0.0 0.0 0.00 0.03 0.00 77 1019.9
20260506120104 2 86 0.0 0.0 0.00 0.03 0.00 77 1019.7
20260506115605 1 86 0.0 1.6 0.00 0.03 0.00 76 1019.4
20260506115100 1 86 0.0 1.6 0.00 0.03 0.00 76 1019.4